EPIC ATHENA

导读

EPIC ATHENA是由美国于2025年7月23日发射的人造卫星。作为美国航天领域2025年的重要发射任务,它承载着相关太空探测或技术验证目标。自发射入轨以来,已在轨稳定运行超七个月,持续开展既定航天任务,为相关空间科学研究或应用领域回传观测数据,助力人类对太空的探索与认知拓展,是美国近年航天布局的重要组成部分。

Basic Information
目录编号:
64871
目录名称:
EPIC ATHENA
国际标识:
2025-154C
轨道中心:
EARTH
卫星名称:
EPIC ATHENA
卫星全名:
EPIC ATHENA
卫星状态:
在轨 (已飞行409 天)
发射日期:
2025-07-23 UTC
国别 :
美国 (US)
星等 :
--
Orbit Information
数据来源 国际轨道数据
星历时间: 2026-09-05T11:49:50+0800
12小时前
查看轨道信息
半长轴: 6962.562km
偏心率: 0.0006155
轨道倾角: 97.660°
近地点辐角 351.771°
升交点赤经 310.055°
平近点角 8.341°
近地点: 580.139km
远地点: 588.711km
周期: 96.364分钟
每日圈数: 14.943391
Detailed Information
使用方式:
暂无
2D Orbit Map
3D Orbit Map
Orbit Altitude Analysis Chart
Orbit Inclination Analysis Chart
Orbit Comprehensive Analysis Chart
View Comprehensive Chart
Conjunction Data List
Event ID Objects TCA Miss Dist (km) Collision Risk Probability Collision Risk Index (CRI) Action
CDM_260905-212206-325806-487123
2026-09-05T
21:22:46+0000
1.303 km
极远距离
1.089356E-5 中风险 0.56
CDM_260829-121603-153706-487122
2026-08-29T
12:16:18+0000
2.859 km
极远距离
1.28873E-6 低风险 0.37